Time,TemperatureF,DewpointF,PressureIn,WindDirection,WindDirectionDegrees,WindSpeedMPH,WindSpeedGustMPH,Humidity,HourlyPrecipIn,Conditions,Clouds,dailyrainin,SoftwareType,DateUTC
2013-02-03 00:00:00,8.6,3.5,29.74,NW,315,0.0,0.2,79,0.00,,,0.00,WUHU216HW,2013-02-03 05:00:00,
2013-02-03 00:02:00,8.6,3.5,29.74,NW,315,0.0,0.2,79,0.00,,,0.00,WUHU216HW,2013-02-03 05:02:00,
2013-02-03 00:03:00,8.5,3.6,29.74,NW,315,0.0,0.2,80,0.00,,,0.00,WUHU216HW,2013-02-03 05:03:00,
2013-02-03 00:08:00,8.5,3.6,29.74,NW,315,0.0,0.0,80,0.00,,,0.00,WUHU216HW,2013-02-03 05:08:00,
2013-02-03 00:13:00,8.5,3.6,29.74,NW,315,0.0,0.0,80,0.00,,,0.00,WUHU216HW,2013-02-03 05:13:00,
2013-02-03 00:18:00,8.5,3.6,29.74,NNW,338,0.0,0.0,80,0.00,,,0.00,WUHU216HW,2013-02-03 05:18:00,
2013-02-03 00:23:00,8.1,3.2,29.74,NW,315,0.0,0.0,80,0.00,,,0.00,WUHU216HW,2013-02-03 05:23:00,
2013-02-03 00:28:00,7.6,2.7,29.74,NW,315,0.0,0.0,80,0.00,,,0.00,WUHU216HW,2013-02-03 05:28:00,
2013-02-03 00:33:00,7.2,2.3,29.74,NW,315,0.0,0.0,80,0.00,,,0.00,WUHU216HW,2013-02-03 05:33:00,
2013-02-03 00:38:00,6.7,1.8,29.74,NNW,338,0.0,0.0,80,0.00,,,0.00,WUHU216HW,2013-02-03 05:38:00,
2013-02-03 00:43:00,6.3,1.4,29.74,NNW,338,0.0,0.0,80,0.00,,,0.00,WUHU216HW,2013-02-03 05:43:00,
2013-02-03 00:48:00,6.5,1.9,29.74,NW,315,0.0,0.0,81,0.00,,,0.00,WUHU216HW,2013-02-03 05:48:00,
2013-02-03 00:53:00,6.8,2.3,29.74,NNW,338,0.0,0.2,81,0.00,,,0.00,WUHU216HW,2013-02-03 05:53:00,
2013-02-03 00:58:00,6.5,1.9,29.74,NNW,338,0.0,0.2,81,0.00,,,0.00,WUHU216HW,2013-02-03 05:58:00,
2013-02-03 01:03:00,6.3,1.7,29.74,NNW,338,0.2,0.2,81,0.00,,,0.00,WUHU216HW,2013-02-03 06:03:00,
2013-02-03 01:08:00,6.5,2.2,29.74,NNW,338,0.0,0.2,82,0.00,,,0.00,WUHU216HW,2013-02-03 06:08:00,
2013-02-03 01:13:00,6.1,1.5,29.73,NW,315,0.0,0.4,81,0.00,,,0.00,WUHU216HW,2013-02-03 06:13:00,
2013-02-03 01:18:00,5.9,1.4,29.73,WNW,293,0.0,0.4,81,0.00,,,0.00,WUHU216HW,2013-02-03 06:18:00,
2013-02-03 01:23:00,5.6,0.7,29.73,WNW,293,0.0,0.2,80,0.00,,,0.00,WUHU216HW,2013-02-03 06:23:00,
2013-02-03 01:28:00,5.4,0.5,29.73,NW,315,0.0,0.0,80,0.00,,,0.00,WUHU216HW,2013-02-03 06:28:00,
2013-02-03 01:33:00,5.2,0.4,29.73,NW,315,0.0,0.0,80,0.00,,,0.00,WUHU216HW,2013-02-03 06:33:00,
2013-02-03 01:38:00,5.4,0.8,29.72,NNW,338,0.0,0.0,81,0.00,,,0.00,WUHU216HW,2013-02-03 06:38:00,
2013-02-03 01:43:00,5.6,1.0,29.72,NNW,338,0.0,0.0,81,0.00,,,0.00,WUHU216HW,2013-02-03 06:43:00,
2013-02-03 01:48:00,6.1,1.8,29.72,NNW,338,0.2,0.2,82,0.00,,,0.00,WUHU216HW,2013-02-03 06:48:00,
2013-02-03 01:53:00,6.5,2.2,29.73,NW,315,0.2,0.2,82,0.00,,,0.00,WUHU216HW,2013-02-03 06:53:00,
2013-02-03 01:58:00,6.7,2.4,29.72,NW,315,0.0,0.4,82,0.00,,,0.00,WUHU216HW,2013-02-03 06:58:00,
2013-02-03 02:03:00,6.5,2.2,29.72,NW,315,0.0,0.4,82,0.00,,,0.00,WUHU216HW,2013-02-03 07:03:00,
2013-02-03 02:08:00,6.7,2.5,29.72,North,0,0.0,0.0,83,0.00,,,0.00,WUHU216HW,2013-02-03 07:08:00,
2013-02-03 02:13:00,6.8,2.7,29.72,NNW,338,0.0,0.0,83,0.00,,,0.00,WUHU216HW,2013-02-03 07:13:00,
2013-02-03 02:18:00,7.0,2.9,29.72,NW,315,0.0,0.0,83,0.00,,,0.00,WUHU216HW,2013-02-03 07:18:00,
2013-02-03 02:23:00,7.2,3.1,29.71,NW,315,0.0,0.0,83,0.00,,,0.00,WUHU216HW,2013-02-03 07:23:00,
2013-02-03 02:28:00,7.2,2.9,29.71,North,0,0.0,0.2,82,0.00,,,0.00,WUHU216HW,2013-02-03 07:28:00,
2013-02-03 02:33:00,7.2,2.9,29.71,NNW,338,0.0,0.2,82,0.00,,,0.00,WUHU216HW,2013-02-03 07:33:00,
2013-02-03 02:38:00,7.4,3.2,29.72,NW,315,0.0,0.0,83,0.00,,,0.00,WUHU216HW,2013-02-03 07:38:00,
2013-02-03 02:43:00,7.4,3.1,29.71,NW,315,0.0,0.2,82,0.00,,,0.00,WUHU216HW,2013-02-03 07:43:00,
2013-02-03 02:48:00,7.4,3.1,29.71,NW,315,0.0,0.2,82,0.00,,,0.00,WUHU216HW,2013-02-03 07:48:00,
2013-02-03 02:53:00,7.2,2.9,29.71,North,0,0.0,0.2,82,0.00,,,0.00,WUHU216HW,2013-02-03 07:53:00,
2013-02-03 02:58:00,7.2,2.9,29.70,NNW,338,0.0,0.0,82,0.00,,,0.00,WUHU216HW,2013-02-03 07:58:00,
2013-02-03 03:03:00,7.0,2.7,29.70,NNW,338,0.0,0.4,82,0.00,,,0.00,WUHU216HW,2013-02-03 08:03:00,
2013-02-03 03:08:00,7.2,3.1,29.70,NNW,338,0.2,0.7,83,0.00,,,0.00,WUHU216HW,2013-02-03 08:08:00,
2013-02-03 03:13:00,7.4,3.2,29.70,WNW,293,0.9,0.9,83,0.00,,,0.00,WUHU216HW,2013-02-03 08:13:00,
2013-02-03 03:18:00,7.6,3.4,29.70,NW,315,0.0,0.9,83,0.00,,,0.00,WUHU216HW,2013-02-03 08:18:00,
2013-02-03 03:23:00,7.6,3.3,29.70,NW,315,0.0,0.4,82,0.00,,,0.00,WUHU216HW,2013-02-03 08:23:00,
2013-02-03 03:28:00,7.6,3.4,29.69,WNW,293,0.0,0.2,83,0.00,,,0.00,WUHU216HW,2013-02-03 08:28:00,
2013-02-03 03:33:00,7.7,3.6,29.69,WNW,293,0.0,0.2,83,0.00,,,0.00,WUHU216HW,2013-02-03 08:33:00,
2013-02-03 03:38:00,7.9,3.8,29.69,WNW,293,0.0,0.2,83,0.00,,,0.00,WUHU216HW,2013-02-03 08:38:00,
2013-02-03 03:44:00,7.9,3.6,29.69,West,270,0.4,0.4,82,0.00,,,0.00,WUHU216HW,2013-02-03 08:44:00,
2013-02-03 03:49:00,7.9,3.6,29.69,West,270,0.0,0.4,82,0.00,,,0.00,WUHU216HW,2013-02-03 08:49:00,
2013-02-03 03:54:00,7.9,3.6,29.68,WNW,293,0.0,1.1,82,0.00,,,0.00,WUHU216HW,2013-02-03 08:54:00,
2013-02-03 03:58:00,7.9,3.6,29.68,WNW,293,0.2,1.1,82,0.00,,,0.00,WUHU216HW,2013-02-03 08:58:00,
2013-02-03 04:04:00,7.9,3.6,29.67,WNW,293,0.0,0.2,82,0.00,,,0.00,WUHU216HW,2013-02-03 09:04:00,
2013-02-03 04:09:00,7.6,3.3,29.67,WNW,293,0.0,0.2,82,0.00,,,0.00,WUHU216HW,2013-02-03 09:09:00,
2013-02-03 04:14:00,7.4,3.1,29.67,West,270,0.2,0.2,82,0.00,,,0.00,WUHU216HW,2013-02-03 09:14:00,
2013-02-03 04:19:00,7.0,2.7,29.67,West,270,0.2,0.4,82,0.00,,,0.00,WUHU216HW,2013-02-03 09:19:00,
2013-02-03 04:24:00,6.8,2.5,29.67,West,270,0.0,0.4,82,0.00,,,0.00,WUHU216HW,2013-02-03 09:24:00,
2013-02-03 04:29:00,6.7,2.4,29.67,West,270,1.1,1.6,82,0.00,,,0.00,WUHU216HW,2013-02-03 09:29:00,
2013-02-03 04:34:00,6.1,1.8,29.67,West,270,0.4,1.6,82,0.00,,,0.00,WUHU216HW,2013-02-03 09:34:00,
2013-02-03 04:39:00,5.9,1.6,29.67,West,270,0.0,1.3,82,0.00,,,0.00,WUHU216HW,2013-02-03 09:39:00,
2013-02-03 04:44:00,5.6,1.0,29.67,West,270,0.0,0.4,81,0.00,,,0.00,WUHU216HW,2013-02-03 09:44:00,
2013-02-03 04:49:00,5.2,0.6,29.67,West,270,0.0,0.4,81,0.00,,,0.00,WUHU216HW,2013-02-03 09:49:00,
2013-02-03 04:54:00,4.9,0.3,29.67,West,270,0.0,0.4,81,0.00,,,0.00,WUHU216HW,2013-02-03 09:54:00,
2013-02-03 04:59:00,4.5,-0.1,29.67,West,270,0.2,0.4,81,0.00,,,0.00,WUHU216HW,2013-02-03 09:59:00,
2013-02-03 05:04:00,4.1,-0.4,29.67,WSW,248,0.4,0.4,81,0.00,,,0.00,WUHU216HW,2013-02-03 10:04:00,
2013-02-03 05:09:00,4.0,-0.6,29.67,WSW,248,0.0,0.4,81,0.00,,,0.00,WUHU216HW,2013-02-03 10:09:00,
2013-02-03 05:14:00,3.6,-1.0,29.67,WSW,248,0.2,0.4,81,0.00,,,0.00,WUHU216HW,2013-02-03 10:14:00,
2013-02-03 05:19:00,3.6,-1.0,29.67,West,270,0.4,0.7,81,0.00,,,0.00,WUHU216HW,2013-02-03 10:19:00,
2013-02-03 05:24:00,3.8,-0.5,29.67,West,270,0.4,0.7,82,0.00,,,0.00,WUHU216HW,2013-02-03 10:24:00,
2013-02-03 05:29:00,3.8,-0.8,29.66,West,270,0.0,0.4,81,0.00,,,0.00,WUHU216HW,2013-02-03 10:29:00,
2013-02-03 05:34:00,3.4,-1.2,29.66,NNW,338,0.0,0.2,81,0.00,,,0.00,WUHU216HW,2013-02-03 10:34:00,
2013-02-03 05:39:00,3.1,-1.5,29.66,NNW,338,0.0,0.2,81,0.00,,,0.00,WUHU216HW,2013-02-03 10:39:00,
2013-02-03 05:44:00,3.1,-1.2,29.66,NNW,338,0.0,0.0,82,0.00,,,0.00,WUHU216HW,2013-02-03 10:44:00,
2013-02-03 05:49:00,2.9,-1.4,29.66,WNW,293,0.0,0.4,82,0.00,,,0.00,WUHU216HW,2013-02-03 10:49:00,
2013-02-03 05:54:00,2.7,-1.6,29.67,West,270,0.0,0.4,82,0.00,,,0.00,WUHU216HW,2013-02-03 10:54:00,
2013-02-03 05:59:00,2.9,-1.4,29.67,West,270,0.0,0.4,82,0.00,,,0.00,WUHU216HW,2013-02-03 10:59:00,
2013-02-03 06:04:00,2.7,-1.6,29.66,West,270,0.2,1.1,82,0.00,,,0.00,WUHU216HW,2013-02-03 11:04:00,
2013-02-03 06:09:00,3.1,-1.2,29.66,WNW,293,0.0,1.1,82,0.00,,,0.00,WUHU216HW,2013-02-03 11:09:00,
2013-02-03 06:14:00,3.1,-1.2,29.66,West,270,0.0,0.7,82,0.00,,,0.00,WUHU216HW,2013-02-03 11:14:00,
2013-02-03 06:19:00,2.9,-1.4,29.66,West,270,0.4,0.7,82,0.00,,,0.00,WUHU216HW,2013-02-03 11:19:00,
2013-02-03 06:24:00,3.2,-1.1,29.66,West,270,0.4,0.9,82,0.00,,,0.00,WUHU216HW,2013-02-03 11:24:00,
2013-02-03 06:29:00,3.6,-0.5,29.66,West,270,0.4,0.9,83,0.00,,,0.00,WUHU216HW,2013-02-03 11:29:00,
2013-02-03 06:34:00,4.0,-0.2,29.66,West,270,1.1,1.3,83,0.00,,,0.00,WUHU216HW,2013-02-03 11:34:00,
2013-02-03 06:39:00,4.1,0.0,29.66,West,270,0.7,1.8,83,0.00,,,0.00,WUHU216HW,2013-02-03 11:39:00,
2013-02-03 06:44:00,4.3,0.2,29.66,WSW,248,1.3,1.8,83,0.00,,,0.00,WUHU216HW,2013-02-03 11:44:00,
2013-02-03 06:49:00,4.5,0.4,29.66,West,270,1.6,1.6,83,0.00,,,0.00,WUHU216HW,2013-02-03 11:49:00,
2013-02-03 06:54:00,4.7,0.5,29.66,West,270,0.7,1.6,83,0.00,,,0.00,WUHU216HW,2013-02-03 11:54:00,
2013-02-03 06:59:00,4.9,0.7,29.65,West,270,1.1,1.8,83,0.00,,,0.00,WUHU216HW,2013-02-03 11:59:00,
2013-02-03 07:04:00,5.2,1.1,29.66,West,270,1.1,2.0,83,0.00,,,0.00,WUHU216HW,2013-02-03 12:04:00,
2013-02-03 07:09:00,5.2,1.1,29.66,WSW,248,2.0,2.0,83,0.00,,,0.00,WUHU216HW,2013-02-03 12:09:00,
2013-02-03 07:14:00,5.4,1.3,29.66,West,270,2.0,2.2,83,0.00,,,0.00,WUHU216HW,2013-02-03 12:14:00,
2013-02-03 07:19:00,5.4,1.3,29.66,West,270,1.8,2.2,83,0.00,,,0.00,WUHU216HW,2013-02-03 12:19:00,
2013-02-03 07:24:00,5.8,1.9,29.66,WSW,248,0.9,2.2,84,0.00,,,0.00,WUHU216HW,2013-02-03 12:24:00,
2013-02-03 07:29:00,5.9,2.1,29.65,West,270,0.9,2.5,84,0.00,,,0.00,WUHU216HW,2013-02-03 12:29:00,
2013-02-03 07:34:00,6.1,2.3,29.66,West,270,0.7,2.5,84,0.00,,,0.00,WUHU216HW,2013-02-03 12:34:00,
2013-02-03 07:39:00,6.3,2.2,29.65,West,270,0.9,1.6,83,0.00,,,0.00,WUHU216HW,2013-02-03 12:39:00,
2013-02-03 07:44:00,6.5,2.6,29.66,West,270,1.1,1.6,84,0.00,,,0.00,WUHU216HW,2013-02-03 12:44:00,
2013-02-03 07:49:00,6.7,2.5,29.65,WSW,248,1.1,1.8,83,0.00,,,0.00,WUHU216HW,2013-02-03 12:49:00,
2013-02-03 07:54:00,6.7,2.5,29.66,West,270,1.1,2.0,83,0.00,,,0.00,WUHU216HW,2013-02-03 12:54:00,
2013-02-03 07:59:00,6.7,2.5,29.66,WSW,248,0.7,2.0,83,0.00,,,0.00,WUHU216HW,2013-02-03 12:59:00,
2013-02-03 08:04:00,6.8,2.7,29.66,West,270,0.9,2.5,83,0.00,,,0.00,WUHU216HW,2013-02-03 13:04:00,
2013-02-03 08:09:00,6.8,2.7,29.65,West,270,0.2,2.5,83,0.00,,,0.00,WUHU216HW,2013-02-03 13:09:00,
2013-02-03 08:14:00,7.2,3.1,29.65,WSW,248,0.2,0.9,83,0.00,,,0.00,WUHU216HW,2013-02-03 13:14:00,
2013-02-03 08:19:00,7.4,3.2,29.65,WSW,248,0.0,0.4,83,0.00,,,0.00,WUHU216HW,2013-02-03 13:19:00,
2013-02-03 08:24:00,7.9,3.8,29.65,WSW,248,0.4,0.4,83,0.00,,,0.00,WUHU216HW,2013-02-03 13:24:00,
2013-02-03 08:29:00,8.3,4.1,29.65,West,270,0.9,1.1,83,0.00,,,0.00,WUHU216HW,2013-02-03 13:29:00,
2013-02-03 08:34:00,8.5,4.3,29.65,WSW,248,0.0,1.6,83,0.00,,,0.00,WUHU216HW,2013-02-03 13:34:00,
2013-02-03 08:39:00,8.8,4.7,29.64,WSW,248,0.0,1.6,83,0.00,,,0.00,WUHU216HW,2013-02-03 13:39:00,
2013-02-03 08:44:00,9.2,5.1,29.64,SW,225,0.0,0.2,83,0.00,,,0.00,WUHU216HW,2013-02-03 13:44:00,
2013-02-03 08:49:00,9.7,5.6,29.65,WSW,248,1.1,1.1,83,0.00,,,0.00,WUHU216HW,2013-02-03 13:49:00,
2013-02-03 08:54:00,10.4,6.2,29.65,West,270,1.1,1.1,83,0.00,,,0.00,WUHU216HW,2013-02-03 13:54:00,
2013-02-03 08:59:00,10.8,6.6,29.65,WSW,248,1.1,1.1,83,0.00,,,0.00,WUHU216HW,2013-02-03 13:59:00,
2013-02-03 09:04:00,11.2,6.9,29.65,WSW,248,1.3,1.8,83,0.00,,,0.00,WUHU216HW,2013-02-03 14:04:00,
2013-02-03 09:09:00,11.2,6.7,29.65,WSW,248,1.1,2.0,82,0.00,,,0.00,WUHU216HW,2013-02-03 14:09:00,
2013-02-03 09:14:00,11.5,7.0,29.66,West,270,2.0,2.0,82,0.00,,,0.00,WUHU216HW,2013-02-03 14:14:00,
2013-02-03 09:19:00,11.7,6.9,29.66,West,270,1.6,2.2,81,0.00,,,0.00,WUHU216HW,2013-02-03 14:19:00,
2013-02-03 09:24:00,12.1,7.3,29.66,West,270,3.8,4.0,81,0.00,,,0.00,WUHU216HW,2013-02-03 14:24:00,
2013-02-03 09:29:00,12.6,7.8,29.66,WSW,248,2.7,4.0,81,0.00,,,0.00,WUHU216HW,2013-02-03 14:29:00,
2013-02-03 09:34:00,13.0,8.5,29.66,WSW,248,4.0,4.0,82,0.00,,,0.00,WUHU216HW,2013-02-03 14:34:00,
2013-02-03 09:39:00,13.3,8.6,29.66,WSW,248,2.0,4.0,81,0.00,,,0.00,WUHU216HW,2013-02-03 14:39:00,
2013-02-03 09:44:00,13.5,8.5,29.66,West,270,2.5,4.0,80,0.00,,,0.00,WUHU216HW,2013-02-03 14:44:00,
2013-02-03 09:49:00,14.0,9.0,29.66,WSW,248,4.3,4.3,80,0.00,,,0.00,WUHU216HW,2013-02-03 14:49:00,
2013-02-03 09:54:00,14.2,8.9,29.66,WNW,293,3.4,4.5,79,0.00,,,0.00,WUHU216HW,2013-02-03 14:54:00,
2013-02-03 09:59:00,14.4,9.1,29.66,West,270,3.4,4.5,79,0.00,,,0.00,WUHU216HW,2013-02-03 14:59:00,
2013-02-03 10:04:00,14.6,8.9,29.65,WSW,248,3.8,4.5,78,0.00,,,0.00,WUHU216HW,2013-02-03 15:04:00,
2013-02-03 10:09:00,14.8,9.1,29.65,WNW,293,1.3,4.0,78,0.00,,,0.00,WUHU216HW,2013-02-03 15:09:00,
2013-02-03 10:14:00,14.8,9.1,29.65,West,270,1.6,3.8,78,0.00,,,0.00,WUHU216HW,2013-02-03 15:14:00,
2013-02-03 10:19:00,14.9,9.0,29.64,SW,225,0.9,3.1,77,0.00,,,0.00,WUHU216HW,2013-02-03 15:19:00,
2013-02-03 10:24:00,15.1,9.5,29.64,SSW,203,1.8,3.1,78,0.00,,,0.00,WUHU216HW,2013-02-03 15:24:00,
2013-02-03 10:29:00,15.3,9.4,29.64,WSW,248,5.4,5.4,77,0.00,,,0.00,WUHU216HW,2013-02-03 15:29:00,
2013-02-03 10:34:00,15.3,9.4,29.64,West,270,4.0,6.3,77,0.00,,,0.00,WUHU216HW,2013-02-03 15:34:00,
2013-02-03 10:39:00,15.5,9.6,29.64,West,270,0.4,6.3,77,0.00,,,0.00,WUHU216HW,2013-02-03 15:39:00,
2013-02-03 10:44:00,15.5,9.6,29.64,West,270,4.9,4.9,77,0.00,,,0.00,WUHU216HW,2013-02-03 15:44:00,
2013-02-03 10:49:00,15.8,10.2,29.64,WSW,248,4.5,4.9,78,0.00,,,0.00,WUHU216HW,2013-02-03 15:49:00,
2013-02-03 10:54:00,16.0,10.1,29.64,WNW,293,3.4,4.9,77,0.00,,,0.00,WUHU216HW,2013-02-03 15:54:00,
2013-02-03 10:59:00,16.4,10.7,29.64,West,270,4.3,4.5,78,0.00,,,0.00,WUHU216HW,2013-02-03 15:59:00,
2013-02-03 11:04:00,17.1,11.1,29.63,SW,225,2.9,5.6,77,0.00,,,0.00,WUHU216HW,2013-02-03 16:04:00,
2013-02-03 11:09:00,17.6,11.3,29.63,West,270,3.8,5.6,76,0.00,,,0.00,WUHU216HW,2013-02-03 16:09:00,
2013-02-03 11:14:00,17.8,11.4,29.63,WSW,248,6.3,6.3,76,0.00,,,0.00,WUHU216HW,2013-02-03 16:14:00,
2013-02-03 11:19:00,18.5,12.2,29.63,West,270,5.4,6.3,76,0.00,,,0.00,WUHU216HW,2013-02-03 16:19:00,
2013-02-03 11:24:00,19.4,13.0,29.63,WNW,293,3.1,6.3,76,0.00,,,0.00,WUHU216HW,2013-02-03 16:24:00,
2013-02-03 11:29:00,20.2,13.7,29.63,West,270,4.9,5.4,76,0.00,,,0.00,WUHU216HW,2013-02-03 16:29:00,
2013-02-03 11:34:00,20.0,13.0,29.63,WNW,293,4.0,7.4,74,0.00,,,0.00,WUHU216HW,2013-02-03 16:34:00,
2013-02-03 11:39:00,20.2,13.2,29.63,SW,225,2.7,7.4,74,0.00,,,0.00,WUHU216HW,2013-02-03 16:39:00,
2013-02-03 11:44:00,20.5,13.8,29.63,WSW,248,4.7,8.1,75,0.00,,,0.00,WUHU216HW,2013-02-03 16:44:00,
2013-02-03 11:49:00,20.5,13.5,29.62,West,270,2.0,8.1,74,0.00,,,0.00,WUHU216HW,2013-02-03 16:49:00,
2013-02-03 11:54:00,21.1,14.3,29.62,West,270,3.4,5.6,75,0.00,,,0.00,WUHU216HW,2013-02-03 16:54:00,
2013-02-03 11:59:00,21.6,14.9,29.62,SSW,203,3.1,5.6,75,0.00,,,0.00,WUHU216HW,2013-02-03 16:59:00,
2013-02-03 12:04:00,22.1,15.1,29.62,WSW,248,4.7,5.6,74,0.00,,,0.00,WUHU216HW,2013-02-03 17:04:00,
2013-02-03 12:09:00,22.1,15.4,29.62,SW,225,1.8,5.6,75,0.00,,,0.00,WUHU216HW,2013-02-03 17:09:00,
2013-02-03 12:14:00,22.9,16.1,29.62,WSW,248,2.5,4.0,75,0.00,,,0.00,WUHU216HW,2013-02-03 17:14:00,
2013-02-03 12:19:00,23.4,16.7,29.62,SSW,203,1.1,3.6,75,0.00,,,0.00,WUHU216HW,2013-02-03 17:19:00,
2013-02-03 12:24:00,23.8,16.4,29.61,WSW,248,3.4,5.4,73,0.00,,,0.00,WUHU216HW,2013-02-03 17:24:00,
2013-02-03 12:29:00,23.8,16.4,29.61,SW,225,0.9,5.4,73,0.00,,,0.00,WUHU216HW,2013-02-03 17:29:00,
2013-02-03 12:34:00,23.9,16.5,29.61,SW,225,2.5,3.8,73,0.00,,,0.00,WUHU216HW,2013-02-03 17:34:00,
2013-02-03 12:39:00,24.3,16.6,29.61,WSW,248,1.8,5.6,72,0.00,,,0.00,WUHU216HW,2013-02-03 17:39:00,
2013-02-03 12:44:00,24.3,16.6,29.61,SSW,203,3.6,5.6,72,0.00,,,0.00,WUHU216HW,2013-02-03 17:44:00,
2013-02-03 12:49:00,24.5,16.8,29.60,SSW,203,4.0,6.9,72,0.00,,,0.00,WUHU216HW,2013-02-03 17:49:00,
2013-02-03 12:54:00,24.3,16.6,29.60,SW,225,3.4,6.9,72,0.00,,,0.00,WUHU216HW,2013-02-03 17:54:00,
2013-02-03 12:59:00,24.7,16.8,29.60,SW,225,2.5,6.5,72,0.00,,,0.00,WUHU216HW,2013-02-03 17:59:00,
2013-02-03 13:04:00,25.0,17.2,29.60,West,270,2.2,6.0,72,0.00,,,0.00,WUHU216HW,2013-02-03 18:04:00,
2013-02-03 13:09:00,25.4,17.6,29.59,West,270,3.8,5.1,72,0.00,,,0.00,WUHU216HW,2013-02-03 18:09:00,
2013-02-03 13:14:00,25.6,17.7,29.59,WSW,248,5.4,5.4,72,0.00,,,0.00,WUHU216HW,2013-02-03 18:14:00,
2013-02-03 13:19:00,25.4,17.6,29.59,WNW,293,2.5,5.4,72,0.00,,,0.00,WUHU216HW,2013-02-03 18:19:00,
2013-02-03 13:24:00,25.9,18.1,29.59,West,270,3.4,5.4,72,0.00,,,0.00,WUHU216HW,2013-02-03 18:24:00,
2013-02-03 13:29:00,26.1,18.3,29.59,West,270,4.3,5.6,72,0.00,,,0.00,WUHU216HW,2013-02-03 18:29:00,
2013-02-03 13:34:00,26.5,18.6,29.59,WSW,248,3.8,5.6,72,0.00,,,0.00,WUHU216HW,2013-02-03 18:34:00,
2013-02-03 13:39:00,26.1,17.6,29.59,WSW,248,6.5,10.5,70,0.00,,,0.00,WUHU216HW,2013-02-03 18:39:00,
2013-02-03 13:44:00,25.4,16.9,29.59,West,270,3.4,10.5,70,0.00,,,0.00,WUHU216HW,2013-02-03 18:44:00,
2013-02-03 13:49:00,24.8,16.0,29.59,West,270,6.7,8.9,69,0.00,,,0.00,WUHU216HW,2013-02-03 18:49:00,
2013-02-03 13:54:00,24.7,16.6,29.59,WSW,248,3.8,8.9,71,0.00,,,0.00,WUHU216HW,2013-02-03 18:54:00,
2013-02-03 13:59:00,24.8,17.0,29.59,WSW,248,5.1,8.3,72,0.00,,,0.00,WUHU216HW,2013-02-03 18:59:00,
2013-02-03 14:04:00,25.0,17.2,29.59,SW,225,3.8,8.3,72,0.00,,,0.00,WUHU216HW,2013-02-03 19:04:00,
2013-02-03 14:09:00,25.0,17.2,29.59,WSW,248,3.4,5.4,72,0.00,,,0.00,WUHU216HW,2013-02-03 19:09:00,
2013-02-03 14:14:00,24.8,17.0,29.59,WSW,248,3.4,5.6,72,0.00,,,0.00,WUHU216HW,2013-02-03 19:14:00,
2013-02-03 14:19:00,24.7,16.6,29.59,West,270,3.4,5.6,71,0.00,,,0.00,WUHU216HW,2013-02-03 19:19:00,
2013-02-03 14:24:00,24.3,16.6,29.59,WNW,293,2.5,5.1,72,0.00,,,0.00,WUHU216HW,2013-02-03 19:24:00,
2013-02-03 14:29:00,24.1,16.7,29.59,WSW,248,5.4,5.4,73,0.00,,,0.00,WUHU216HW,2013-02-03 19:29:00,
2013-02-03 14:34:00,24.1,16.7,29.59,WSW,248,4.0,5.8,73,0.00,,,0.00,WUHU216HW,2013-02-03 19:34:00,
2013-02-03 14:39:00,24.1,16.7,29.58,WSW,248,3.4,7.6,73,0.00,,,0.00,WUHU216HW,2013-02-03 19:39:00,
2013-02-03 14:44:00,24.1,16.4,29.58,WSW,248,2.9,8.3,72,0.00,,,0.00,WUHU216HW,2013-02-03 19:44:00,
2013-02-03 14:49:00,24.1,16.4,29.58,West,270,9.6,9.6,72,0.00,,,0.00,WUHU216HW,2013-02-03 19:49:00,
2013-02-03 14:54:00,24.1,16.7,29.58,SW,225,5.6,9.6,73,0.00,,,0.00,WUHU216HW,2013-02-03 19:54:00,
2013-02-03 14:59:00,24.1,16.7,29.58,West,270,4.3,9.6,73,0.00,,,0.00,WUHU216HW,2013-02-03 19:59:00,
2013-02-03 15:04:00,24.1,16.7,29.59,WSW,248,1.8,6.9,73,0.00,,,0.00,WUHU216HW,2013-02-03 20:04:00,
2013-02-03 15:09:00,23.8,16.4,29.59,West,270,6.3,8.3,73,0.00,,,0.00,WUHU216HW,2013-02-03 20:09:00,
2013-02-03 15:14:00,23.6,16.5,29.59,West,270,3.4,8.3,74,0.00,,,0.00,WUHU216HW,2013-02-03 20:14:00,
2013-02-03 15:19:00,23.4,16.7,29.59,WSW,248,1.8,6.3,75,0.00,,,0.00,WUHU216HW,2013-02-03 20:19:00,
2013-02-03 15:24:00,23.2,16.5,29.60,WSW,248,5.1,7.4,75,0.00,,,0.00,WUHU216HW,2013-02-03 20:24:00,
2013-02-03 15:29:00,22.9,16.1,29.60,West,270,6.3,7.4,75,0.00,,,0.00,WUHU216HW,2013-02-03 20:29:00,
2013-02-03 15:34:00,22.7,16.2,29.60,West,270,2.9,6.5,76,0.00,,,0.00,WUHU216HW,2013-02-03 20:34:00,
2013-02-03 15:39:00,22.7,16.2,29.60,WNW,293,1.8,6.3,76,0.00,,,0.00,WUHU216HW,2013-02-03 20:39:00,
2013-02-03 15:44:00,22.9,16.8,29.60,West,270,4.7,6.0,77,0.00,,,0.00,WUHU216HW,2013-02-03 20:44:00,
2013-02-03 15:49:00,22.7,16.6,29.60,West,270,3.4,6.0,77,0.00,,,0.00,WUHU216HW,2013-02-03 20:49:00,
2013-02-03 15:54:00,22.7,16.6,29.60,West,270,3.4,6.0,77,0.00,,,0.00,WUHU216HW,2013-02-03 20:54:00,
2013-02-03 15:59:00,22.5,16.4,29.61,West,270,3.4,5.4,77,0.00,,,0.00,WUHU216HW,2013-02-03 20:59:00,
2013-02-03 16:04:00,22.5,16.4,29.60,West,270,3.4,6.3,77,0.00,,,0.00,WUHU216HW,2013-02-03 21:04:00,
2013-02-03 16:09:00,22.5,16.4,29.61,WSW,248,4.3,6.3,77,0.00,,,0.00,WUHU216HW,2013-02-03 21:09:00,
2013-02-03 16:14:00,22.7,16.6,29.61,West,270,2.9,6.0,77,0.00,,,0.00,WUHU216HW,2013-02-03 21:14:00,
2013-02-03 16:19:00,22.5,16.7,29.61,West,270,1.8,4.7,78,0.00,,,0.00,WUHU216HW,2013-02-03 21:19:00,
2013-02-03 16:24:00,22.3,16.5,29.61,SW,225,1.8,4.9,78,0.00,,,0.00,WUHU216HW,2013-02-03 21:24:00,
2013-02-03 16:29:00,22.1,16.3,29.61,West,270,4.0,5.1,78,0.00,,,0.00,WUHU216HW,2013-02-03 21:29:00,
2013-02-03 16:34:00,21.8,16.3,29.61,West,270,2.5,5.6,79,0.00,,,0.00,WUHU216HW,2013-02-03 21:34:00,
2013-02-03 16:39:00,21.6,16.4,29.61,West,270,5.8,6.3,80,0.00,,,0.00,WUHU216HW,2013-02-03 21:39:00,
2013-02-03 16:44:00,21.4,16.2,29.61,West,270,4.0,6.9,80,0.00,,,0.00,WUHU216HW,2013-02-03 21:44:00,
2013-02-03 16:49:00,21.2,16.0,29.61,SW,225,4.5,6.9,80,0.00,,,0.00,WUHU216HW,2013-02-03 21:49:00,
2013-02-03 16:54:00,21.2,16.0,29.61,WSW,248,1.8,7.6,80,0.00,,,0.00,WUHU216HW,2013-02-03 21:54:00,
2013-02-03 16:59:00,21.4,16.2,29.61,WNW,293,3.8,7.6,80,0.00,,,0.00,WUHU216HW,2013-02-03 21:59:00,
2013-02-03 17:04:00,21.2,15.8,29.62,West,270,7.2,7.2,79,0.00,,,0.00,WUHU216HW,2013-02-03 22:04:00,
2013-02-03 17:09:00,20.9,15.4,29.62,West,270,3.1,12.1,79,0.00,,,0.00,WUHU216HW,2013-02-03 22:09:00,
2013-02-03 17:14:00,20.9,15.7,29.62,West,270,2.9,12.1,80,0.00,,,0.00,WUHU216HW,2013-02-03 22:14:00,
2013-02-03 17:19:00,20.5,15.3,29.62,West,270,2.2,7.6,80,0.00,,,0.00,WUHU216HW,2013-02-03 22:19:00,
2013-02-03 17:24:00,20.5,15.3,29.62,West,270,4.0,7.6,80,0.00,,,0.00,WUHU216HW,2013-02-03 22:24:00,
2013-02-03 17:29:00,20.5,15.6,29.62,WSW,248,2.2,6.0,81,0.00,,,0.00,WUHU216HW,2013-02-03 22:29:00,
2013-02-03 17:34:00,20.3,15.4,29.63,WSW,248,4.3,6.0,81,0.00,,,0.00,WUHU216HW,2013-02-03 22:34:00,
2013-02-03 17:39:00,20.2,15.5,29.63,WNW,293,2.7,4.3,82,0.00,,,0.00,WUHU216HW,2013-02-03 22:39:00,
2013-02-03 17:44:00,19.8,15.1,29.63,WSW,248,9.2,9.2,82,0.00,,,0.00,WUHU216HW,2013-02-03 22:44:00,
2013-02-03 17:49:00,19.6,14.7,29.63,West,270,6.7,9.2,81,0.00,,,0.00,WUHU216HW,2013-02-03 22:49:00,
2013-02-03 17:54:00,19.4,13.6,29.64,West,270,4.9,9.2,78,0.00,,,0.00,WUHU216HW,2013-02-03 22:54:00,
2013-02-03 17:59:00,19.4,13.6,29.64,WSW,248,10.7,10.7,78,0.00,,,0.00,WUHU216HW,2013-02-03 22:59:00,
2013-02-03 18:04:00,19.3,13.2,29.64,West,270,8.5,10.7,77,0.00,,,0.00,WUHU216HW,2013-02-03 23:04:00,
2013-02-03 18:09:00,19.3,12.8,29.64,West,270,5.8,10.7,76,0.00,,,0.00,WUHU216HW,2013-02-03 23:09:00,
2013-02-03 18:14:00,19.1,12.7,29.65,West,270,4.5,11.0,76,0.00,,,0.00,WUHU216HW,2013-02-03 23:14:00,
2013-02-03 18:19:00,19.1,12.7,29.65,WSW,248,8.1,11.0,76,0.00,,,0.00,WUHU216HW,2013-02-03 23:19:00,
2013-02-03 18:24:00,19.1,12.3,29.65,West,270,1.8,8.7,75,0.00,,,0.00,WUHU216HW,2013-02-03 23:24:00,
2013-02-03 18:29:00,19.1,12.1,29.66,West,270,5.6,8.1,74,0.00,,,0.00,WUHU216HW,2013-02-03 23:29:00,
2013-02-03 18:34:00,19.1,12.1,29.66,West,270,6.3,6.7,74,0.00,,,0.00,WUHU216HW,2013-02-03 23:34:00,
2013-02-03 18:39:00,18.9,11.9,29.66,West,270,4.0,6.7,74,0.00,,,0.00,WUHU216HW,2013-02-03 23:39:00,
2013-02-03 18:44:00,18.9,11.9,29.66,NW,315,1.3,6.7,74,0.00,,,0.00,WUHU216HW,2013-02-03 23:44:00,
2013-02-03 18:49:00,18.9,11.9,29.66,West,270,3.8,7.8,74,0.00,,,0.00,WUHU216HW,2013-02-03 23:49:00,
2013-02-03 18:54:00,18.7,11.7,29.66,West,270,0.4,7.8,74,0.00,,,0.00,WUHU216HW,2013-02-03 23:54:00,
2013-02-03 18:59:00,18.7,12.0,29.67,West,270,6.0,6.0,75,0.00,,,0.00,WUHU216HW,2013-02-03 23:59:00,
2013-02-03 19:04:00,18.4,12.0,29.67,West,270,4.7,6.0,76,0.00,,,0.00,WUHU216HW,2013-02-04 00:04:00,
2013-02-03 19:09:00,18.2,12.3,29.67,West,270,4.3,8.3,78,0.00,,,0.00,WUHU216HW,2013-02-04 00:09:00,
2013-02-03 19:14:00,17.8,12.1,29.67,West,270,5.4,11.6,78,0.00,,,0.00,WUHU216HW,2013-02-04 00:14:00,
2013-02-03 19:19:00,17.8,12.1,29.68,WNW,293,2.5,11.6,78,0.00,,,0.00,WUHU216HW,2013-02-04 00:19:00,
2013-02-03 19:24:00,17.8,12.1,29.68,WNW,293,4.9,9.4,78,0.00,,,0.00,WUHU216HW,2013-02-04 00:24:00,
2013-02-03 19:29:00,17.6,11.0,29.68,NNW,338,8.3,9.8,75,0.00,,,0.00,WUHU216HW,2013-02-04 00:29:00,
2013-02-03 19:34:00,17.6,10.5,29.69,WNW,293,6.3,9.8,73,0.00,,,0.00,WUHU216HW,2013-02-04 00:34:00,
2013-02-03 19:39:00,17.5,9.6,29.69,West,270,6.3,8.9,71,0.00,,,0.00,WUHU216HW,2013-02-04 00:39:00,
2013-02-03 19:44:00,17.5,9.6,29.69,West,270,6.3,8.5,71,0.00,,,0.00,WUHU216HW,2013-02-04 00:44:00,
2013-02-03 19:49:00,17.5,9.6,29.69,West,270,4.3,9.2,71,0.00,,,0.00,WUHU216HW,2013-02-04 00:49:00,
2013-02-03 19:54:00,17.3,9.5,29.69,WSW,248,4.7,9.2,71,0.00,,,0.00,WUHU216HW,2013-02-04 00:54:00,
2013-02-03 19:59:00,17.3,9.5,29.69,WNW,293,2.9,7.2,71,0.00,,,0.00,WUHU216HW,2013-02-04 00:59:00,
2013-02-03 20:04:00,17.3,9.5,29.69,West,270,4.9,6.5,71,0.00,,,0.00,WUHU216HW,2013-02-04 01:04:00,
2013-02-03 20:09:00,17.3,9.5,29.69,NW,315,5.4,5.6,71,0.00,,,0.00,WUHU216HW,2013-02-04 01:09:00,
2013-02-03 20:14:00,17.1,9.3,29.70,NW,315,4.7,6.3,71,0.00,,,0.00,WUHU216HW,2013-02-04 01:14:00,
2013-02-03 20:19:00,16.9,9.5,29.70,WNW,293,1.6,6.3,72,0.00,,,0.00,WUHU216HW,2013-02-04 01:19:00,
2013-02-03 20:24:00,16.9,9.7,29.70,NW,315,5.4,5.4,73,0.00,,,0.00,WUHU216HW,2013-02-04 01:24:00,
2013-02-03 20:29:00,16.9,9.7,29.70,NW,315,1.1,5.4,73,0.00,,,0.00,WUHU216HW,2013-02-04 01:29:00,
2013-02-03 20:34:00,16.9,10.0,29.70,NW,315,3.6,5.4,74,0.00,,,0.00,WUHU216HW,2013-02-04 01:34:00,
2013-02-03 20:39:00,16.9,10.0,29.70,West,270,0.9,3.6,74,0.00,,,0.00,WUHU216HW,2013-02-04 01:39:00,
2013-02-03 20:44:00,16.9,10.3,29.70,WNW,293,1.3,3.6,75,0.00,,,0.00,WUHU216HW,2013-02-04 01:44:00,
2013-02-03 20:49:00,16.9,10.3,29.71,West,270,3.8,4.7,75,0.00,,,0.00,WUHU216HW,2013-02-04 01:49:00,
2013-02-03 20:54:00,16.9,10.3,29.71,WNW,293,2.5,4.7,75,0.00,,,0.00,WUHU216HW,2013-02-04 01:54:00,
2013-02-03 20:59:00,16.7,10.2,29.71,West,270,5.6,5.6,75,0.00,,,0.00,WUHU216HW,2013-02-04 01:59:00,
2013-02-03 21:04:00,16.7,10.2,29.72,West,270,4.7,5.6,75,0.00,,,0.00,WUHU216HW,2013-02-04 02:04:00,
2013-02-03 21:09:00,16.6,10.0,29.72,SW,225,2.2,5.6,75,0.00,,,0.00,WUHU216HW,2013-02-04 02:09:00,
2013-02-03 21:14:00,16.6,10.0,29.72,NW,315,4.3,5.4,75,0.00,,,0.00,WUHU216HW,2013-02-04 02:14:00,
2013-02-03 21:19:00,16.6,9.6,29.72,WSW,248,5.8,5.8,74,0.00,,,0.00,WUHU216HW,2013-02-04 02:19:00,
2013-02-03 21:24:00,16.6,9.6,29.72,WNW,293,2.2,6.9,74,0.00,,,0.00,WUHU216HW,2013-02-04 02:24:00,
2013-02-03 21:29:00,16.4,9.5,29.73,West,270,4.0,6.9,74,0.00,,,0.00,WUHU216HW,2013-02-04 02:29:00,
2013-02-03 21:34:00,16.2,9.3,29.73,West,270,2.7,4.9,74,0.00,,,0.00,WUHU216HW,2013-02-04 02:34:00,
2013-02-03 21:39:00,16.0,9.2,29.73,WNW,293,2.5,4.9,74,0.00,,,0.00,WUHU216HW,2013-02-04 02:39:00,
2013-02-03 21:44:00,16.0,9.2,29.73,WNW,293,3.4,4.9,74,0.00,,,0.00,WUHU216HW,2013-02-04 02:44:00,
2013-02-03 21:49:00,15.8,9.0,29.73,NW,315,2.9,5.4,74,0.00,,,0.00,WUHU216HW,2013-02-04 02:49:00,
2013-02-03 21:54:00,15.8,9.3,29.73,NNW,338,2.9,5.4,75,0.00,,,0.00,WUHU216HW,2013-02-04 02:54:00,
2013-02-03 21:59:00,16.0,9.5,29.73,WSW,248,1.8,4.3,75,0.00,,,0.00,WUHU216HW,2013-02-04 02:59:00,
2013-02-03 22:04:00,16.0,9.5,29.73,WSW,248,4.9,4.9,75,0.00,,,0.00,WUHU216HW,2013-02-04 03:04:00,
2013-02-03 22:09:00,16.2,9.6,29.73,NW,315,1.1,4.9,75,0.00,,,0.00,WUHU216HW,2013-02-04 03:09:00,
2013-02-03 22:14:00,16.2,9.6,29.74,West,270,1.8,4.9,75,0.00,,,0.00,WUHU216HW,2013-02-04 03:14:00,
2013-02-03 22:19:00,16.2,9.6,29.74,WNW,293,0.4,2.0,75,0.00,,,0.00,WUHU216HW,2013-02-04 03:19:00,
2013-02-03 22:24:00,16.2,9.3,29.73,WNW,293,0.4,3.4,74,0.00,,,0.00,WUHU216HW,2013-02-04 03:24:00,
2013-02-03 22:29:00,16.2,9.3,29.73,NW,315,2.5,3.4,74,0.00,,,0.00,WUHU216HW,2013-02-04 03:29:00,
2013-02-03 22:34:00,16.2,9.3,29.73,West,270,1.8,2.7,74,0.00,,,0.00,WUHU216HW,2013-02-04 03:34:00,
2013-02-03 22:39:00,16.2,9.0,29.73,WNW,293,1.1,3.8,73,0.00,,,0.00,WUHU216HW,2013-02-04 03:39:00,
2013-02-03 22:44:00,16.2,9.0,29.73,WNW,293,2.9,4.5,73,0.00,,,0.00,WUHU216HW,2013-02-04 03:44:00,
2013-02-03 22:49:00,16.2,8.7,29.73,WNW,293,2.0,4.5,72,0.00,,,0.00,WUHU216HW,2013-02-04 03:49:00,
2013-02-03 22:54:00,16.2,8.4,29.73,West,270,1.6,4.0,71,0.00,,,0.00,WUHU216HW,2013-02-04 03:54:00,
2013-02-03 22:59:00,16.2,8.4,29.73,WNW,293,4.7,5.1,71,0.00,,,0.00,WUHU216HW,2013-02-04 03:59:00,
2013-02-03 23:04:00,16.2,8.4,29.73,West,270,2.5,5.1,71,0.00,,,0.00,WUHU216HW,2013-02-04 04:04:00,
2013-02-03 23:09:00,16.2,8.4,29.73,WSW,248,1.6,5.6,71,0.00,,,0.00,WUHU216HW,2013-02-04 04:09:00,
2013-02-03 23:14:00,16.0,8.2,29.73,West,270,2.5,5.6,71,0.00,,,0.00,WUHU216HW,2013-02-04 04:14:00,
2013-02-03 23:19:00,16.0,8.2,29.73,West,270,0.0,4.0,71,0.00,,,0.00,WUHU216HW,2013-02-04 04:19:00,
2013-02-03 23:24:00,16.0,8.2,29.73,WSW,248,2.0,2.5,71,0.00,,,0.00,WUHU216HW,2013-02-04 04:24:00,
2013-02-03 23:29:00,16.0,8.2,29.73,WSW,248,3.1,3.1,71,0.00,,,0.00,WUHU216HW,2013-02-04 04:29:00,
2013-02-03 23:34:00,16.0,8.2,29.73,WSW,248,3.4,3.6,71,0.00,,,0.00,WUHU216HW,2013-02-04 04:34:00,
2013-02-03 23:39:00,16.0,8.6,29.73,West,270,2.5,3.8,72,0.00,,,0.00,WUHU216HW,2013-02-04 04:39:00,
2013-02-03 23:44:00,16.0,8.6,29.72,West,270,1.1,3.8,72,0.00,,,0.00,WUHU216HW,2013-02-04 04:44:00,
2013-02-03 23:49:00,16.0,8.6,29.73,West,270,1.8,3.6,72,0.00,,,0.00,WUHU216HW,2013-02-04 04:49:00,
2013-02-03 23:54:00,16.2,8.7,29.73,West,270,1.8,4.5,72,0.00,,,0.00,WUHU216HW,2013-02-04 04:54:00,
2013-02-03 23:59:00,16.0,8.6,29.73,West,270,1.3,4.5,72,0.00,,,0.00,WUHU216HW,2013-02-04 04:59:00,